Starlink 32118

operational
NORAD ID: 60280 Int'l Des: 2024-132 Owner: SPXS Country: US Constellation: starlink
LEOCIRCULAR

About Starlink 32118

Description loading...

Live Position

Loading 3D Globe...

Upcoming Passes

Altitude History

Altitude vs Time

uPlot chart will show altitude changes over time

Two-Line Element Set

1 60280U 24132C 25261.06951964 .00004879 00000-0 17674-3 0 9990
2 60280 53.1586 134.0819 0001082 101.5194 258.5929 15.30202663 65137
Epoch: Sep 18, 2025 • Age: 9 hours

Current Status

Altitude 489.5 km
Velocity 7.62 km/s
Sub-Earth Point -41.42°S, 162.1°W
Launch Date Jul 28, 2024
Age 1.1 years
Type internet

Technical Details

Classification Payload
Mass 730.00 kg
Dry Mass 700.00 kg
Total Mass 730.00 kg
Length 0.30 m
Diameter 4.10 m
Span 29.00 m
Shape Box + pan
Manufacturer SPXS
Bus Type Starlink V2M
Phase Status In Orbit
Owner/State SPXS/US

Large Constellations

Loading constellations...